Find Starlink 36737

NORAD ID: 67740 Int'l Des: 2026-026 Owner: SPXS Country: US Constellation: starlink operational
LEOCIRCULARRETROGRADE

当前视图

正在加载3D地球...

关于 Starlink 36737

正在加载描述...

即将过境

Passes for default location (London). Set your location on the main map for personalized predictions.

高度历史

Loading altitude history...

两行轨道根数

1 67740U 26026V 26146.10819418 .00029311 00000-0 90597-3 0 9990
2 67740 97.2849 199.6679 0000745 32.5375 327.5913 15.33471622 15991
Epoch: May 26, 2026 • Age: 15 hours

当前状态

高度 471.6 km
速度 7.63 km/s
星下点 41.56°N, 116.92°W
发射日期 Feb 11, 2026
运行时间 0.2 years
类型 internet

技术详情

分类 Payload
质量 575.00 kg
干质量 530.00 kg
总质量 575.00 kg
长度 0.30 m
直径 4.10 m
跨度 29.00 m
形状 Box + pan
制造商 SPXS
平台类型 Starlink V2MO
阶段状态 In Orbit
所有者/国家 SPXS/US

Most Searched